Temp
-11 -12 -12 -12 -12 -12 -12 -12 -11 -11 -12 -12 -12 -12 -12 -12 -12 -12 -12 -12 -12 -12 -12 -12 -12 -12 -13 -13 -13 -13 -13 -12 -13 -16 -17 -19 -20 -20 -21 -21 -21 -21 -21
-12 -12 -13 -13 -12 -12 -12 -12 -12 -12 -12 -12 -12 -12 -12 -12 -12 -12 -12 -12 -12 -12 -12 -12 -12 -13 -13 -13 -13 -13 -13 -13 -15 -16 -19 -20 -20 -21 -21 -20 -21 -21 -21
-12 -13 -13 -13 -13 -13 -13 -12 -12 -12 -12 -12 -12 -12 -12 -12 -12 -12 -12 -12 -12 -12 -13 -13 -13 -13 -13 -13 -13 -13 -13 -14 -16 -18 -20 -20 -21 -20 -20 -21 -21 -22 -21
-14 -14 -13 -13 -14 -14 -13 -13 -13 -13 -13 -13 -13 -13 -12 -13 -13 -13 -13 -13 -13 -13 -13 -13 -13 -13 -13 -13 -13 -13 -13 -15 -16 -19 -20 -20 -20 -21 -20 -21 -21 -21 -19
-14 -14 -14 -14 -14 -14 -14 -13 -13 -13 -13 -13 -13 -13 -13 -13 -13 -13 -13 -13 -13 -13 -13 -13 -13 -13 -13 -13 -13 -13 -13 -14 -16 -19 -20 -20 -20 -20 -20 -21 -21 -19 -18
-15 -15 -15 -15 -15 -14 -14 -14 -13 -13 -13 -13 -13 -13 -13 -13 -13 -13 -13 -13 -13 -13 -13 -13 -14 -14 -14 -13 -13 -13 -14 -15 -18 -20 -20 -20 -20 -21 -21 -21 -20 -19 -17
-16 -15 -15 -15 -14 -14 -14 -14 -14 -14 -14 -14 -13 -13 -13 -13 -13 -13 -13 -13 -13 -13 -13 -13 -14 -14 -14 -13 -14 -14 -15 -18 -20 -20 -20 -20 -20 -20 -20 -21 -19 -17 -16
-15 -15 -15 -15 -15 -14 -14 -14 -14 -14 -14 -14 -14 -14 -14 -13 -13 -13 -13 -13 -13 -13 -13 -13 -14 -14 -13 -13 -14 -15 -17 -19 -19 -19 -19 -19 -20 -20 -20 -19 -18 -16 -16
-15 -15 -15 -15 -15 -15 -14 -14 -14 -14 -14 -14 -14 -14 -14 -14 -14 -14 -14 -14 -13 -14 -13 -14 -14 -13 -14 -14 -14 -16 -19 -19 -19 -19 -20 -20 -20 -20 -20 -18 -17 -16 -17
-15 -15 -15 -15 -15 -15 -15 -15 -15 -14 -14 -14 -14 -14 -14 -14 -14 -14 -14 -14 -14 -14 -14 -14 -14 -14 -14 -14 -15 -17 -19 -19 -19 -19 -19 -20 -20 -21 -19 -17 -15 -16 -16
-16 -15 -15 -15 -15 -15 -15 -15 -15 -15 -14 -14 -14 -14 -14 -14 -14 -14 -14 -14 -14 -14 -14 -14 -14 -14 -14 -14 -16 -18 -19 -19 -19 -19 -19 -20 -20 -20 -19 -17 -16 -17 -16
-16 -16 -16 -15 -15 -15 -15 -15 -15 -15 -14 -14 -14 -14 -14 -14 -14 -14 -14 -14 -14 -14 -14 -14 -14 -14 -15 -15 -16 -19 -19 -19 -19 -20 -19 -20 -20 -19 -19 -18 -17 -16 -16
-17 -16 -15 -15 -15 -15 -15 -15 -15 -15 -15 -14 -14 -14 -14 -14 -15 -14 -14 -14 -14 -15 -14 -14 -14 -14 -15 -16 -16 -19 -19 -19 -19 -19 -19 -19 -19 -19 -19 -17 -18 -17 -17
-16 -16 -16 -15 -15 -15 -15 -15 -15 -15 -15 -14 -14 -14 -15 -15 -15 -14 -14 -14 -14 -15 -14 -14 -14 -14 -15 -16 -16 -19 -19 -19 -18 -19 -19 -19 -19 -18 -17 -16 -16 -16 -16
-16 -16 -16 -15 -16 -16 -16 -15 -15 -15 -15 -15 -15 -15 -15 -15 -15 -14 -14 -14 -14 -15 -14 -14 -14 -14 -15 -17 -17 -19 -19 -19 -18 -18 -18 -18 -18 -18 -17 -15 -16 -16 -15
-17 -16 -16 -16 -16 -16 -16 -15 -15 -15 -15 -15 -15 -15 -15 -15 -15 -15 -15 -15 -14 -15 -15 -15 -14 -15 -16 -17 -17 -19 -19 -19 -18 -18 -18 -18 -18 -18 -17 -17 -17 -16 -15
-17 -16 -16 -16 -15 -15 -15 -15 -15 -15 -15 -15 -15 -15 -15 -15 -15 -15 -15 -15 -15 -15 -15 -15 -14 -15 -16 -17 -17 -19 -18 -19 -18 -18 -17 -17 -17 -17 -17 -16 -16 -15 -15
-16 -16 -16 -15 -16 -16 -16 -16 -15 -15 -15 -14 -14 -14 -15 -15 -15 -15 -15 -15 -15 -15 -15 -15 -15 -15 -17 -18 -18 -19 -18 -18 -18 -17 -17 -17 -17 -16 -16 -16 -16 -15 -16
-16 -16 -16 -16 -16 -16 -16 -16 -16 -15 -15 -15 -14 -15 -15 -15 -15 -15 -15 -15 -15 -15 -15 -15 -15 -16 -17 -18 -17 -19 -19 -18 -18 -18 -17 -17 -17 -17 -16 -16 -16 -15 -15
-16 -16 -16 -16 -16 -16 -16 -16 -16 -15 -15 -15 -15 -15 -15 -15 -15 -15 -14 -15 -15 -15 -15 -15 -15 -16 -17 -18 -17 -19 -19 -19 -19 -18 -17 -17 -17 -17 -16 -16 -16 -16 -16
-16 -17 -17 -16 -16 -16 -16 -16 -16 -16 -15 -15 -15 -15 -15 -15 -15 -15 -15 -15 -15 -15 -15 -14 -14 -17 -18 -18 -18 -19 -19 -19 -19 -18 -17 -17 -17 -17 -16 -15 -16 -17 -17
-18 -17 -17 -16 -16 -16 -16 -16 -16 -15 -15 -15 -15 -15 -16 -15 -15 -15 -15 -15 -15 -15 -14 -14 -15 -18 -18 -18 -18 -19 -19 -19 -18 -18 -18 -17 -17 -17 -17 -16 -15 -16 -16
-17 -17 -17 -17 -16 -16 -16 -16 -16 -15 -16 -16 -16 -16 -16 -16 -15 -15 -15 -15 -15 -14 -14 -14 -17 -18 -18 -18 -19 -19 -19 -18 -18 -18 -17 -17 -17 -17 -17 -16 -16 -16 -15
-18 -17 -17 -16 -16 -16 -16 -16 -16 -16 -16 -16 -16 -16 -17 -16 -16 -16 -16 -15 -15 -14 -14 -15 -18 -18 -18 -18 -19 -19 -19 -19 -19 -18 -18 -17 -17 -17 -17 -17 -16 -15 -15
-18 -17 -16 -16 -16 -16 -16 -16 -17 -17 -17 -17 -17 -17 -17 -16 -16 -16 -15 -15 -15 -14 -15 -17 -18 -18 -18 -18 -19 -19 -19 -19 -19 -19 -18 -17 -17 -17 -17 -17 -16 -15 -15
-17 -17 -16 -16 -16 -17 -17 -17 -17 -17 -17 -18 -17 -17 -16 -16 -16 -16 -15 -15 -15 -15 -17 -18 -18 -18 -18 -18 -19 -19 -19 -19 -19 -18 -18 -17 -16 -16 -16 -16 -16 -15 -14
Height
5712 5718 5723 5726 5728 5730 5733 5735 5737 5738 5739 5740 5741 5739 5738 5737 5736 5734 5731 5728 5725 5720 5715 5709 5702 5696 5689 5680 5671 5659 5647 5631 5621 5616 5596 5585 5577 5574 5571 5567 5565 5564 5563
5700 5703 5707 5711 5714 5718 5721 5723 5725 5726 5728 5729 5730 5729 5728 5726 5726 5723 5721 5717 5713 5709 5703 5696 5690 5683 5674 5665 5654 5642 5628 5609 5596 5590 5580 5571 5565 5560 5558 5554 5551 5548 5544
5686 5689 5692 5696 5701 5705 5708 5711 5713 5715 5717 5717 5718 5718 5718 5716 5715 5713 5710 5707 5702 5697 5691 5685 5678 5671 5662 5651 5639 5626 5610 5591 5577 5567 5566 5557 5553 5548 5545 5542 5537 5531 5528
5670 5677 5680 5682 5687 5691 5695 5698 5701 5703 5705 5706 5706 5707 5707 5706 5705 5703 5700 5696 5691 5685 5679 5674 5667 5658 5650 5639 5625 5610 5593 5574 5558 5547 5548 5546 5542 5537 5533 5528 5521 5513 5516
5655 5663 5667 5669 5672 5676 5681 5685 5688 5692 5693 5695 5696 5696 5696 5695 5694 5692 5689 5686 5681 5675 5669 5663 5655 5647 5637 5625 5611 5597 5578 5560 5540 5531 5534 5535 5533 5530 5525 5517 5507 5502 5511
5640 5647 5653 5656 5659 5664 5668 5672 5677 5680 5682 5684 5684 5685 5685 5684 5683 5681 5679 5675 5670 5665 5659 5653 5645 5636 5625 5612 5597 5580 5559 5541 5525 5524 5527 5528 5525 5521 5517 5510 5502 5502 5514
5624 5632 5639 5645 5649 5652 5655 5659 5666 5669 5670 5672 5673 5674 5674 5673 5672 5670 5668 5664 5660 5654 5649 5643 5635 5625 5615 5603 5586 5566 5549 5532 5526 5526 5525 5523 5520 5515 5509 5504 5502 5507 5528
5605 5615 5623 5631 5637 5641 5644 5650 5653 5656 5659 5661 5662 5663 5662 5661 5661 5659 5657 5653 5649 5644 5639 5632 5625 5616 5604 5592 5576 5558 5543 5533 5530 5527 5523 5519 5514 5510 5505 5501 5506 5519 5538
5589 5599 5609 5616 5623 5629 5633 5639 5643 5645 5648 5650 5651 5652 5651 5651 5650 5648 5646 5643 5639 5633 5628 5622 5616 5606 5595 5583 5569 5553 5542 5535 5530 5528 5523 5518 5512 5506 5500 5502 5514 5534 5552
5573 5582 5592 5601 5609 5615 5620 5627 5631 5633 5636 5639 5641 5641 5641 5641 5640 5637 5636 5633 5629 5624 5619 5613 5606 5597 5586 5574 5562 5549 5541 5536 5531 5528 5524 5518 5512 5506 5502 5511 5527 5545 5560
5556 5566 5576 5586 5596 5601 5607 5614 5618 5622 5625 5628 5628 5630 5631 5630 5629 5627 5625 5623 5619 5615 5610 5604 5596 5588 5578 5566 5556 5545 5539 5536 5531 5529 5524 5520 5514 5509 5511 5522 5537 5549 5563
5545 5555 5564 5572 5582 5589 5595 5602 5607 5611 5614 5616 5618 5619 5619 5620 5618 5617 5615 5613 5610 5606 5601 5595 5588 5580 5570 5560 5550 5543 5537 5535 5532 5529 5526 5521 5517 5515 5523 5532 5547 5562 5574
5531 5543 5549 5560 5569 5576 5584 5590 5595 5599 5602 5604 5606 5608 5609 5609 5608 5607 5604 5602 5600 5597 5592 5587 5580 5572 5563 5554 5546 5539 5536 5533 5532 5531 5528 5526 5528 5531 5539 5548 5559 5570 5583
5519 5530 5539 5550 5559 5566 5572 5578 5583 5587 5590 5593 5596 5597 5599 5599 5598 5596 5594 5593 5590 5587 5583 5578 5572 5564 5556 5547 5541 5537 5535 5532 5533 5533 5531 5534 5538 5544 5550 5558 5565 5576 5590
5509 5520 5531 5537 5545 5554 5560 5567 5571 5575 5580 5583 5585 5587 5589 5588 5587 5585 5585 5583 5581 5577 5573 5569 5563 5555 5548 5541 5534 5534 5532 5531 5533 5537 5535 5537 5544 5550 5557 5564 5573 5584 5591
5500 5512 5523 5531 5537 5543 5550 5557 5561 5565 5569 5572 5575 5577 5578 5577 5577 5576 5574 5573 5571 5567 5564 5559 5554 5547 5540 5536 5530 5530 5531 5530 5530 5537 5538 5542 5549 5554 5561 5570 5577 5582 5593
5493 5504 5513 5522 5528 5534 5541 5547 5551 5555 5559 5562 5564 5566 5567 5568 5567 5566 5564 5563 5561 5558 5555 5550 5544 5537 5531 5529 5525 5525 5527 5527 5529 5533 5539 5542 5549 5557 5563 5569 5575 5585 5594
5484 5494 5504 5510 5520 5528 5533 5536 5540 5544 5547 5550 5553 5556 5557 5557 5557 5556 5555 5553 5551 5548 5545 5540 5534 5527 5523 5520 5519 5517 5521 5524 5527 5530 5536 5542 5546 5556 5561 5568 5577 5584 5594
5476 5486 5497 5506 5511 5518 5523 5527 5531 5535 5537 5538 5543 5545 5547 5547 5546 5546 5546 5544 5542 5540 5536 5530 5524 5518 5513 5510 5509 5511 5513 5516 5521 5524 5530 5536 5542 5549 5559 5564 5573 5583 5593
5471 5483 5490 5497 5502 5509 5515 5519 5523 5526 5527 5530 5533 5536 5537 5537 5537 5537 5537 5535 5533 5530 5526 5520 5514 5508 5503 5500 5498 5501 5506 5509 5511 5519 5523 5530 5536 5542 5551 5561 5569 5578 5587
5466 5475 5482 5490 5498 5503 5508 5511 5515 5516 5519 5520 5523 5526 5527 5527 5529 5529 5528 5527 5524 5520 5515 5510 5503 5498 5494 5491 5488 5492 5497 5502 5505 5511 5518 5525 5530 5537 5544 5556 5566 5577 5583
5465 5471 5480 5487 5493 5496 5499 5504 5508 5509 5508 5511 5515 5517 5518 5519 5520 5520 5519 5517 5515 5510 5504 5499 5493 5488 5485 5482 5480 5485 5490 5495 5500 5507 5513 5520 5528 5533 5540 5550 5562 5571 5582
5463 5468 5476 5481 5486 5490 5494 5496 5497 5498 5500 5504 5505 5508 5510 5511 5511 5510 5509 5507 5504 5499 5493 5487 5481 5478 5476 5474 5473 5478 5484 5488 5494 5501 5507 5512 5520 5528 5535 5543 5554 5565 5579
5460 5465 5470 5476 5481 5483 5483 5485 5488 5491 5493 5495 5497 5499 5501 5503 5502 5502 5500 5498 5493 5487 5481 5475 5469 5468 5466 5465 5465 5472 5478 5483 5488 5494 5502 5509 5516 5524 5530 5538 5549 5560 5574
5456 5461 5463 5468 5469 5472 5476 5480 5482 5485 5487 5489 5490 5493 5495 5496 5495 5494 5491 5486 5481 5474 5468 5461 5457 5455 5453 5452 5455 5463 5470 5476 5482 5490 5497 5504 5511 5519 5528 5537 5546 5556 5571
5451 5456 5459 5462 5466 5471 5473 5476 5478 5480 5483 5484 5487 5488 5488 5489 5487 5484 5480 5475 5468 5461 5453 5449 5444 5440 5437 5437 5443 5453 5462 5469 5477 5484 5492 5499 5508 5516 5523 5531 5540 5553 5567
Wind_Speed
54 47 44 46 48 49 48 47 48 47 44 41 42 41 41 39 39 40 41 42 43 46 47 47 50 53 54 58 63 70 77 86 86 67 57 49 40 41 43 42 38 41 45
54 51 49 50 52 51 49 46 47 46 43 42 42 41 40 39 39 40 41 42 44 46 47 50 52 53 56 60 66 74 82 88 80 72 46 39 38 38 35 35 36 43 39
56 54 52 52 52 49 47 46 47 45 43 41 40 40 40 39 40 40 41 43 45 47 49 50 51 53 57 61 69 78 86 85 79 68 46 34 32 37 37 42 38 40 35
58 56 55 54 47 47 48 48 47 43 42 40 39 38 40 39 39 40 41 43 45 47 48 49 50 54 58 63 73 81 87 82 80 60 37 28 25 29 34 40 36 35 33
59 55 55 51 49 51 50 48 46 42 40 39 38 38 38 38 39 39 41 43 45 46 47 48 51 55 59 66 75 84 87 82 76 42 21 17 23 27 31 38 36 22 44
62 57 57 55 54 53 53 49 44 41 39 38 37 36 36 37 38 39 41 43 45 45 45 48 51 55 61 70 81 85 81 74 44 13 14 18 20 23 28 31 23 30 64
57 60 57 60 57 56 55 51 43 40 39 37 36 36 36 37 38 39 41 42 44 44 44 47 51 56 62 71 80 79 71 43 12 13 16 19 23 26 24 28 17 52 91
60 57 62 53 57 56 56 50 44 41 38 37 36 36 37 37 37 39 41 41 43 44 44 48 52 56 61 72 80 70 43 17 16 19 21 17 19 18 28 18 38 86 95
67 60 58 53 57 57 56 53 46 44 40 37 36 36 37 37 37 39 40 40 42 43 44 49 51 56 62 73 71 53 24 18 18 20 16 17 15 26 16 26 64 95 81
59 63 62 60 58 56 56 53 48 46 42 38 36 37 37 37 37 39 40 40 42 42 44 48 51 55 63 71 61 35 21 19 21 20 19 22 14 11 16 47 92 95 76
55 55 56 53 55 54 54 52 48 43 40 38 38 37 38 37 37 39 40 39 40 41 44 47 50 56 63 66 53 25 19 22 22 20 12 11 16 18 35 69 91 79 88
55 52 52 54 53 52 50 46 43 39 40 39 38 38 38 37 38 39 38 38 38 41 43 47 50 56 61 57 45 20 18 22 20 20 13 12 15 35 53 62 85 78 85
57 59 54 51 49 50 48 45 41 40 39 40 39 38 37 37 38 38 38 37 37 40 42 45 48 55 59 46 38 17 16 19 18 17 8 11 31 55 61 60 72 71 59
59 56 49 47 51 50 46 44 39 36 35 35 36 37 36 39 36 36 38 36 36 39 41 43 48 54 54 40 32 16 14 19 16 12 3 17 39 63 54 61 70 69 56
57 50 52 47 44 38 34 35 37 35 34 36 36 35 39 35 35 36 37 33 35 38 39 43 48 53 50 36 24 14 13 16 20 9 8 22 37 60 54 56 73 73 51
44 43 51 40 38 38 36 38 33 35 37 33 37 36 32 34 34 35 34 31 35 37 39 43 50 52 44 33 20 17 14 15 23 13 12 29 36 46 46 74 66 55 60
36 45 43 42 41 45 42 40 35 35 32 36 31 39 42 36 34 34 31 31 34 36 39 44 49 47 40 30 21 21 15 14 26 19 18 21 38 41 54 68 50 59 60
40 45 47 50 50 44 40 38 39 36 39 44 41 42 35 34 33 32 30 31 33 35 40 45 48 45 37 28 25 24 23 17 30 28 27 26 30 48 53 58 56 52 61
43 45 48 48 43 40 34 32 34 36 32 20 26 31 31 31 29 29 29 30 32 37 41 46 48 44 36 29 28 25 29 25 27 36 31 32 32 43 57 70 57 58 49
48 46 42 31 26 28 30 32 30 26 21 23 23 26 28 29 27 27 27 29 32 38 43 46 47 41 35 30 26 28 30 27 28 43 36 33 34 40 49 71 66 59 41
39 33 27 27 29 27 21 18 19 21 23 21 23 26 26 23 25 24 25 27 33 38 41 45 48 37 32 30 22 32 29 26 25 40 37 35 35 39 44 58 64 60 58
32 34 28 23 20 18 15 19 22 23 23 26 28 26 25 23 24 23 24 29 36 39 42 47 46 33 30 29 18 35 31 27 28 41 43 43 40 39 39 54 64 63 58
24 24 23 17 15 17 20 20 22 25 26 26 24 24 25 22 23 23 27 33 37 40 44 49 44 33 30 28 21 37 32 30 32 42 43 42 40 39 46 51 60 59 63
19 18 17 15 14 13 13 18 21 22 22 22 22 25 19 20 21 25 29 37 39 42 47 47 40 35 31 28 26 40 35 34 34 40 45 46 46 45 46 52 63 63 64
15 12 9 9 10 12 16 18 16 16 16 18 17 14 18 19 25 28 32 36 42 45 48 44 39 36 35 28 31 44 37 35 34 44 44 44 42 43 48 53 61 68 64
11 10 8 9 13 15 15 14 12 11 13 12 12 15 18 22 25 30 35 39 44 48 45 43 41 40 38 22 41 47 40 37 38 45 47 46 45 39 44 48 57 74 69
Wind_Direction
241 239 240 244 247 249 253 257 258 262 264 266 270 271 273 276 281 287 291 295 297 298 300 301 302 305 308 311 313 313 315 314 316 316 308 299 285 281 283 283 280 271 273
239 236 235 240 244 248 252 253 256 260 264 270 271 272 273 277 282 287 292 296 298 298 300 304 305 308 311 315 314 316 316 318 316 316 309 289 285 283 284 278 279 270 283
238 233 233 236 243 247 249 250 254 260 265 268 269 272 274 278 282 288 293 297 298 300 302 304 306 311 315 315 317 318 319 318 316 312 308 289 282 290 278 282 285 289 271
237 237 233 233 238 244 247 249 254 258 263 264 267 271 273 278 283 289 294 298 299 301 304 305 308 313 315 317 319 319 321 317 313 305 298 289 292 293 284 299 300 283 228
235 231 231 231 234 242 245 249 252 257 263 263 266 268 271 276 283 289 294 298 300 303 304 308 311 315 316 319 320 322 322 320 311 298 280 283 291 285 295 303 307 249 189
235 230 233 231 234 240 246 250 252 256 260 259 264 267 271 277 282 290 294 298 301 303 306 309 313 315 319 320 322 325 324 320 314 281 276 294 296 291 298 302 299 189 175
227 231 234 241 242 244 248 252 256 258 254 259 262 266 271 276 283 289 294 299 301 303 308 311 313 318 320 323 328 329 326 319 318 319 311 295 286 298 293 301 224 170 166
218 224 229 236 244 248 255 257 256 256 254 259 263 266 271 276 283 289 295 298 301 305 308 311 316 320 323 325 333 329 324 320 317 313 314 294 288 305 308 273 175 163 163
221 224 228 232 239 246 253 258 257 256 257 259 261 267 271 276 283 289 295 297 302 305 309 311 317 321 324 327 333 331 313 315 309 322 314 299 320 318 276 196 167 162 164
231 228 227 231 239 246 250 254 255 257 259 261 262 267 271 275 283 290 295 296 300 304 307 312 317 322 325 330 333 326 304 300 305 319 323 324 299 284 197 169 164 157 161
226 231 229 226 233 241 247 252 256 257 259 259 260 265 269 275 284 290 294 295 299 302 306 313 316 324 324 333 333 316 302 290 304 320 325 334 300 179 169 162 168 166 161
219 222 225 224 231 238 246 252 256 259 259 258 259 263 268 275 284 289 291 294 297 299 305 312 319 324 325 334 333 305 299 284 303 322 322 298 176 170 160 161 173 161 170
218 222 218 225 231 236 240 247 251 259 259 253 258 261 269 275 283 288 288 292 294 297 306 314 320 322 327 331 331 287 294 281 299 316 296 159 154 156 152 160 174 178 172
217 217 224 228 228 231 237 246 250 251 252 253 257 263 270 277 281 286 287 288 292 298 308 315 320 321 329 329 329 252 282 284 275 299 245 156 166 171 165 166 175 179 170
213 212 219 218 223 232 241 244 247 248 251 253 258 265 274 278 281 281 283 285 292 299 308 315 320 321 329 328 327 236 258 283 234 244 184 178 183 175 175 179 175 172 181
209 213 220 226 234 238 243 247 248 251 252 253 261 265 279 281 273 277 279 286 292 299 308 314 318 322 330 327 325 223 242 261 220 197 183 183 186 190 176 172 180 179 169
212 208 222 228 231 238 240 246 252 251 248 254 260 271 273 271 270 273 276 286 292 302 307 313 317 323 327 322 329 217 227 233 205 204 195 191 190 186 180 176 177 191 185
212 211 220 226 233 240 244 247 250 237 250 244 252 264 261 263 270 272 277 285 293 301 306 312 317 322 324 318 319 211 215 218 204 205 200 197 197 195 195 181 173 184 182
202 212 217 228 230 234 245 242 245 244 236 248 258 256 256 265 269 272 276 285 293 299 306 311 316 320 321 312 314 214 208 220 217 201 207 205 194 195 199 187 187 179 183
199 214 218 215 219 222 223 225 226 231 243 247 256 256 258 266 268 268 277 288 294 302 307 310 314 319 318 309 308 213 206 214 212 203 213 204 203 200 197 202 200 208 186
201 200 195 202 205 209 214 229 243 241 243 252 254 257 260 261 266 268 279 292 303 307 309 312 315 319 315 309 298 206 206 207 202 198 203 201 200 201 202 204 212 215 217
175 177 188 196 205 212 231 244 250 255 254 251 252 259 257 261 259 270 285 303 309 309 311 313 315 320 309 311 270 201 204 204 202 202 198 196 196 195 197 201 204 212 215
180 179 195 205 225 239 243 249 264 263 255 252 256 256 258 252 264 270 290 307 310 311 315 314 316 315 304 309 235 201 204 205 200 195 187 192 190 197 198 202 200 201 204
183 186 195 208 230 245 257 256 250 243 244 246 246 252 247 262 278 289 293 305 313 316 314 315 316 310 300 303 222 201 202 201 202 210 193 193 192 196 194 196 193 197 202
183 196 218 236 253 258 261 257 248 242 239 253 250 258 271 281 295 291 300 313 315 314 313 313 312 305 299 293 213 199 201 195 200 207 191 183 185 183 183 188 191 194 197
191 209 221 245 247 252 242 233 233 249 250 236 258 275 283 295 302 307 309 314 315 312 312 311 306 301 298 261 201 195 195 191 197 197 194 190 186 188 197 194 190 195 198